Location: Butte
(46.0040°N, 112.5340°W)
Time: 23:52:34
(UTC-06:00)

Daily predictions for brighter satellites

Satellite Brightness Start Highest point End
(mag) Time Altitude Azimuth Time Altitude Azimuth Time Altitude Azimuth
ERS-1 Rocket 3.3 21:40:12 10° S 21:45:12 73° WSW 21:50:15 10° NNW
Meteor 1-15 Rocket 4.4 21:41:39 10° NNW 21:47:16 82° W 21:52:55 10° S
SL-16 R/B 2.6 21:42:07 10° SW 21:47:45 71° WNW 21:53:26 10° NNE
Atlas Centaur 2 4.1 21:42:39 10° SSW 21:48:06 22° SSE 21:54:02 10° ESE
ISS -1.8 21:45:53 10° S 21:48:11 18° SE 21:50:29 10° E
Cosmos 1812 Rocket 3.9 21:46:03 10° N 21:50:20 51° ENE 21:54:38 10° SSE
ATLAS CENTAUR R/B 3.7 21:45:41 10° WSW 21:50:21 38° NW 21:55:04 10° NNE
SL-8 R/B 4.1 21:46:17 10° W 21:51:07 68° N 21:55:58 10° ENE
deb Chang Zheng 4 3.6 21:47:41 10° NNE 21:52:07 87° ESE 21:56:30 10° SSW
Envisat 3.1 21:47:11 10° SSE 21:52:14 72° ENE 21:57:19 10° N
GRACE-1 4.2 21:50:00 10° NNE 21:52:49 48° E 21:55:36 10° SSE
GRACE-2 4.2 21:50:27 10° NNE 21:53:15 48° E 21:56:02 10° SSE
Cosmos 1464 Rocket 4.3 21:48:04 10° NNW 21:54:10 70° W 22:00:17 10° S
MetOp-B 4.5 21:49:11 10° SE 21:54:21 52° ENE 21:59:34 10° N
USA 234 3.5 21:49:21 10° ESE 21:55:54 74° NNE 22:02:29 10° NW
Cosmos 1939 Rocket 3.1 21:54:08 10° S 21:58:18 81° WSW 22:02:28 10° NNW
Lacrosse 5 rocket 3.0 22:01:19 10° W 22:04:58 37° NNW 22:08:50 10° NE
H-2A R/B 2.9 22:01:46 10° S 22:05:54 49° W 22:10:10 10° NNW
Cosmos 1515 4.4 22:04:20 10° SSE 22:07:54 37° E 22:11:30 10° NNE
CZ-4 SHROUD 3.3 22:05:03 10° S 22:08:12 80° WSW 22:11:23 10° NNW
SPOT 5 2.6 22:04:55 10° SSE 22:09:20 89° ENE 22:13:41 10° NNW
ALOS 4.5 22:06:50 10° SW 22:10:32 23° W 22:14:17 10° NW
USA 245 4.4 22:06:04 10° SSE 22:11:49 54° ENE 22:16:41 10° N
Cosmos 2034 Rocket 4.4 22:07:09 10° NNW 22:13:29 68° W 22:19:44 10° S
USA 81 4.5 22:08:30 10° N 22:13:38 48° E 22:18:23 12° SSE
Cosmos 1634 Rocket 4.3 22:07:44 10° N 22:13:44 50° ENE 22:19:21 12° SSE
Cosmos 1626 Rocket 3.7 22:10:20 10° SSW 22:14:46 79° W 22:19:12 10° N
COSMOS 2455 3.0 22:09:00 10° SSW 22:14:50 55° ESE 22:20:42 10° NE
Cosmos 1603 3.7 22:11:12 10° SSW 22:16:48 82° ESE 22:22:26 10° NNE
YAOGAN 6 2.9 22:14:15 12° SSE 22:17:32 56° ENE 22:21:13 10° N
Cosmos 2228 4.5 22:14:56 10° NNW 22:19:01 37° W 22:23:04 10° SSW
Lacrosse 5 4.1 22:16:47 10° WNW 22:21:02 26° NNW 22:25:18 10° NE
Cosmos 1992 Rocket 4.0 22:20:55 10° NNW 22:26:12 82° ENE 22:30:40 14° SSE
Terra 3.2 22:22:47 12° ESE 22:26:12 26° ENE 22:30:07 10° N
Cosmos 1346 Rocket 3.7 22:24:22 15° SE 22:26:53 30° E 22:30:21 10° NNE
Meteor 2-12 Rocket 4.5 22:21:15 10° N 22:27:24 90° ENE 22:33:28 10° S
BREEZE-M DEB (TANK) 2.2 22:25:43 10° SW 22:29:08 45° SSE 22:31:09 10° ENE
PSLV R/B 4.4 22:28:05 10° S 22:31:00 39° W 22:33:58 10° NNW
Cosmos 1953 Rocket 4.1 22:29:44 15° SSE 22:33:02 40° E 22:37:12 10° NNE
Cosmos 1943 3.3 22:34:43 10° S 22:40:13 55° ESE 22:45:47 10° NE
Lacrosse 4 Rocket 2.1 22:39:17 18° SSE 22:41:36 30° ESE 22:45:13 10° NE
H-2A R/B 2.7 22:38:18 17° SE 22:41:42 39° ENE 22:46:24 10° N
Cosmos 1943 Rocket 3.1 22:37:07 10° NNW 22:42:17 38° NE 22:46:20 16° ESE
Cosmos-2242 4.2 22:42:19 10° N 22:46:14 30° ENE 22:48:32 19° ESE
Cosmos 2346 Rocket 4.4 22:40:56 10° S 22:47:06 75° E 22:53:13 10° NNE
SeaSat 1 3.4 22:44:08 11° S 22:48:30 41° WSW 22:53:11 10° NW
Cosmos 1190 Rocket 4.1 22:43:44 10° S 22:48:55 58° ESE 22:54:09 10° NNE
UNK 4.5 22:43:56 10° NNE 22:49:19 74° WNW 22:54:58 10° SSW
SPOT 1/Viking Rocket 3.7 22:45:59 14° S 22:50:26 73° WSW 22:55:36 10° NNW
CZ-4B R/B 3.7 22:50:15 10° NNE 22:55:20 76° WNW 23:00:30 10° SSW
Cosmos 1766 3.4 22:55:58 10° N 22:59:57 61° ENE 23:01:58 27° SSE
DELTA 2 DEB (DPAF) 4.1 23:00:46 22° SSE 23:03:38 87° WSW 23:08:11 10° NNW
Cosmos 676 Rocket 4.3 23:02:01 19° S 23:05:35 49° ESE 23:10:43 10° NNE
Cosmos 1758 Rocket 3.5 23:04:10 21° S 23:07:06 75° E 23:11:29 10° NNE
CARTOSAT-1 3.6 23:08:33 28° SSE 23:10:46 67° ENE 23:15:04 10° N
ARGOS 3.7 23:14:47 17° S 23:18:53 53° W 23:24:12 10° NNW
Cosmos 2369 Rocket 2.8 23:16:17 10° NW 23:21:44 48° WSW 23:25:15 21° S
ISS -3.2 23:21:02 10° WSW 23:24:18 77° NNW 23:27:34 10° ENE
CZ-4C R/B 4.0 23:22:04 23° SSW 23:24:28 51° W 23:28:26 10° NNW
Cosmos 1470 4.3 23:25:10 10° NNE 23:28:19 23° ENE 23:29:15 21° E
ATLAS 3B R/B 2.9 23:20:44 10° SSW 23:28:27 84° SE 23:35:59 10° NE
SL-27 R/B 2.9 23:28:34 39° ESE 23:28:34 39° ESE 23:31:43 10° NE
PSLV R/B 4.2 23:26:01 10° WSW 23:28:47 34° SSW 23:28:47 34° SSW
Cosmos 1805 3.4 23:28:51 10° N 23:32:46 60° E 23:33:53 41° SE
SL-8 R/B 3.8 23:29:07 10° WNW 23:33:58 76° NNE 23:37:39 17° E
Cosmos 1842 Rocket 4.0 23:30:47 10° N 23:35:03 49° ENE 23:36:28 35° SE
Spot 2 4.3 23:30:36 10° NNE 23:35:23 77° ESE 23:38:03 28° S
Atlas Centaur 2 3.9 23:30:18 10° SW 23:36:40 26° S 23:38:00 25° SSE
Cosmos 407 Rocket 3.7 23:31:34 11° SSW 23:36:42 71° WNW 23:41:56 10° NNE
USA 234 4.0 23:35:50 23° S 23:39:13 38° SW 23:45:17 10° WNW
Cosmos 1953 2.2 23:37:10 10° N 23:41:11 88° W 23:42:23 44° S
Cosmos 1340 4.2 23:43:01 23° E 23:43:01 23° E 23:45:58 10° NE
Cosmos 1092 Rocket 4.4 23:42:22 30° SSE 23:45:13 50° E 23:51:15 10° NNE
Lacrosse 5 rocket 4.2 23:42:18 10° NW 23:45:14 19° N 23:48:16 10° NE
Spot 4 4.0 23:48:23 33° S 23:50:25 66° WSW 23:55:12 10° NNW
Cosmos 2208 Rocket 3.9 23:46:41 10° NNW 23:51:54 78° ENE 23:53:56 38° SSE
CZ-4B R/B 3.8 23:51:14 15° E 23:52:09 16° ENE 23:54:25 10° NNE
COSMOS 2406 3.3 23:51:29 33° S 23:53:49 56° ESE 23:59:26 10° NNE
